Liberal, KS

3:54 PM CDT on August 24, 2019 (GMT -0500)
Liberal Municipal

Weather History for KLBL - July, 2019

Change the Weather History Date:

Monday, July 22, 2019

  Actual Average Record
Temperature  
Mean Temperature 73 °F -  
Max Temperature 82 °F 93 °F 112 °F (1981)
Min Temperature 64 °F 66 °F 56 °F (1970)
Cooling Degree Days 8    
Growing Degree Days 23 (Base 50)    
Moisture  
Dew Point 61 °F    
Average Humidity 74    
Maximum Humidity 94    
Minimum Humidity 41    
Precipitation  
Precipitation 0.00 in - - ()
Sea Level Pressure  
Sea Level Pressure 30.23 in    
Wind  
Wind Speed 11 mph (NE)    
Max Wind Speed 17 mph    
Max Gust Speed 24 mph    
Visibility 9 miles    
Events      
Averages and records for this station are not official NWS values.
T = Trace of Precipitation, MM = Missing Value Source: NWS Daily Summary

Daily Weather History Graph

Daily Weather History Graph

Search for Another Location

Airport or City:

Astronomy

Jul. 22, 2019 Rise Set
Actual Time 6:40 AM CDT 8:59 PM CDT
Civil Twilight 6:11 AM CDT 9:28 PM CDT
Nautical Twilight 5:35 AM CDT 10:04 PM CDT
Astronomical Twilight 4:55 AM CDT 10:44 PM CDT
Moon 12:01 AM CDT (7/22) 11:52 AM CDT (7/22)
Length of Visible Light 15h 17m
Length of Day
14h 18m
Waning Gibbous, 72% of the Moon is Illuminated
Jul 22
Waning Gibbous
Jul 24
Last Quarter
Jul 31
New
Aug 7
First Quarter
Aug 15
Full

Hourly Weather History & Observations

Time (CDT) Temp. Heat Index Dew Point Humidity Pressure Visibility Wind Dir Wind Speed Gust Speed Precip Events Conditions
12:56 AM 71.1 °F - 64.9 °F 81% 30.10 in 10.0 mi NE 17.3 mph 24.2 mph N/A   Clear
1:56 AM 69.1 °F - 63.0 °F 81% 30.13 in 10.0 mi ENE 12.7 mph - N/A   Clear
2:56 AM 68.0 °F - 63.0 °F 84% 30.13 in 10.0 mi NE 9.2 mph - N/A   Scattered Clouds
3:56 AM 66.9 °F - 62.1 °F 84% 30.13 in 10.0 mi NE 11.5 mph - N/A   Clear
4:07 AM 66.2 °F - 62.6 °F 88% 30.23 in 0.8 mi NE 10.4 mph - N/A   Haze
4:21 AM 66.2 °F - 62.6 °F 88% 30.23 in 10.0 mi NNE 11.5 mph - N/A   Clear
4:44 AM 66.2 °F - 62.6 °F 88% 30.23 in 10.0 mi NE 9.2 mph - N/A   Mostly Cloudy
4:56 AM 66.0 °F - 62.1 °F 87% 30.14 in 5.0 mi NNE 10.4 mph - N/A   Mostly Cloudy
5:07 AM 64.4 °F - 62.6 °F 94% 30.24 in 10.0 mi NE 10.4 mph - N/A   Scattered Clouds
5:49 AM 64.4 °F - 62.6 °F 94% 30.27 in 10.0 mi Variable 3.5 mph - N/A   Mostly Cloudy
5:56 AM 64.0 °F - 62.1 °F 93% 30.17 in 10.0 mi NW 4.6 mph - N/A   Mostly Cloudy
6:56 AM 64.9 °F - 63.0 °F 93% 30.22 in 10.0 mi West 5.8 mph - N/A   Overcast
7:31 AM 64.4 °F - 62.6 °F 94% 30.31 in 10.0 mi WNW 6.9 mph - N/A   Overcast
7:44 AM 66.2 °F - 62.6 °F 88% 30.31 in 10.0 mi NW 8.1 mph - N/A   Overcast
7:56 AM 66.0 °F - 63.0 °F 90% 30.22 in 10.0 mi NW 8.1 mph - N/A   Overcast
8:16 AM 66.2 °F - 64.4 °F 94% 30.32 in 10.0 mi NNW 8.1 mph - N/A   Overcast
8:38 AM 66.2 °F - 64.4 °F 94% 30.32 in 10.0 mi NNW 8.1 mph - N/A   Overcast
8:56 AM 66.9 °F - 64.0 °F 90% 30.24 in 10.0 mi North 11.5 mph - N/A   Overcast
9:25 AM 66.2 °F - 62.6 °F 88% 30.33 in 10.0 mi NNE 12.7 mph - N/A   Overcast
9:45 AM 66.2 °F - 62.6 °F 88% 30.33 in 10.0 mi NNE 13.8 mph - N/A   Overcast
9:53 AM 66.2 °F - 62.6 °F 88% 30.33 in 10.0 mi North 11.5 mph - N/A   Overcast
9:56 AM 66.9 °F - 63.0 °F 87% 30.25 in 10.0 mi North 10.4 mph - N/A   Overcast
10:56 AM 71.1 °F - 61.0 °F 70% 30.25 in 10.0 mi NE 13.8 mph - N/A   Overcast
11:56 AM 71.1 °F - 62.1 °F 73% 30.25 in 10.0 mi NNE 12.7 mph - N/A   Overcast
12:56 PM 73.0 °F - 62.1 °F 68% 30.25 in 10.0 mi NE 13.8 mph - N/A   Overcast
1:56 PM 75.9 °F - 62.1 °F 62% 30.24 in 10.0 mi NNE 10.4 mph - N/A   Mostly Cloudy
2:26 PM 77.0 °F - 62.6 °F 61% 30.31 in 10.0 mi NE 10.4 mph - N/A   Mostly Cloudy
2:56 PM 80.1 °F 81.5 °F 63.0 °F 56% 30.22 in 10.0 mi NE 13.8 mph 19.6 mph N/A   Scattered Clouds
3:56 PM 80.1 °F 81.1 °F 61.0 °F 52% 30.20 in 10.0 mi East 11.5 mph - N/A   Mostly Cloudy
4:56 PM 82.0 °F 82.7 °F 61.0 °F 49% 30.18 in 10.0 mi East 8.1 mph - N/A   Partly Cloudy
5:56 PM 82.9 °F 82.8 °F 59.0 °F 44% 30.17 in 10.0 mi ENE 10.4 mph - N/A   Partly Cloudy
6:56 PM 82.9 °F 82.4 °F 57.0 °F 41% 30.15 in 10.0 mi ENE 13.8 mph - N/A   Clear
7:56 PM 81.0 °F 81.0 °F 57.0 °F 44% 30.17 in 10.0 mi NE 10.4 mph - N/A   Clear
8:56 PM 77.0 °F - 57.0 °F 50% 30.19 in 10.0 mi ENE 6.9 mph - N/A   Clear
9:37 PM 75.2 °F - 57.2 °F 53% 30.29 in 0.2 mi ENE 6.9 mph - N/A   Haze
9:44 PM 75.2 °F - 57.2 °F 53% 30.29 in 1.2 mi ENE 5.8 mph - N/A   Haze
9:56 PM 73.9 °F - 57.0 °F 55% 30.23 in 1.2 mi ENE 5.8 mph - N/A   Haze
10:06 PM 73.4 °F - 55.4 °F 53% 30.30 in 10.0 mi ENE 5.8 mph - N/A   Unknown
10:56 PM 72.0 °F - 57.9 °F 61% 30.25 in 10.0 mi East 5.8 mph - N/A   Clear
11:56 PM 69.1 °F - 57.0 °F 65% 30.26 in 10.0 mi East 9.2 mph - N/A   Clear